GFSNW_sfc_wetblb_276.txt.gz
Wetbulb
57.81 57.85 58.35 56.50 54.58 52.73 54.98 59.00 56.12 61.26 61.72 53.56 55.08 51.60 52.17 49.09 52.95 54.82 53.33 53.56 52.40 52.30 53.01 52.37 51.13 50.05 51.74 53.94 54.05 50.87 53.17 51.10 49.17 50.64 54.79 57.87 57.91 56.73 56.90 53.16 52.35 53.51 51.96 51.77
58.21 58.01 57.95 56.00 54.17 52.85 58.28 56.95 59.49 61.62 60.81 50.47 51.43 53.35 52.10 52.77 52.47 53.25 52.81 52.18 54.10 55.13 53.62 51.98 52.94 52.33 54.22 53.44 53.20 52.50 53.21 49.40 47.07 48.64 52.26 54.35 53.93 56.75 57.72 57.57 56.45 52.41 50.17 52.19
58.55 58.01 57.85 55.34 54.62 53.50 56.39 56.20 56.00 57.64 57.89 57.95 53.61 51.92 52.07 52.33 56.44 55.34 55.72 54.97 56.33 55.11 54.84 55.92 53.93 53.48 55.30 54.05 54.08 59.56 58.40 50.83 49.21 46.95 49.92 52.90 51.87 53.91 56.19 56.49 53.29 52.95 53.67 54.51
59.04 58.21 57.83 55.92 54.70 53.36 55.70 56.88 58.50 58.76 52.44 53.38 55.69 55.85 54.89 52.57 52.33 57.03 57.95 55.95 55.28 55.21 53.75 53.63 53.10 54.94 55.66 56.22 58.49 54.36 53.58 49.57 51.48 51.22 51.76 52.28 53.16 53.34 54.72 54.30 55.06 53.05 54.64 54.54
59.13 58.63 58.24 56.27 55.10 53.63 57.42 55.24 55.75 59.06 58.48 56.69 56.18 51.95 55.17 54.31 54.62 55.52 54.75 56.12 57.10 58.08 56.32 55.38 53.67 57.17 57.84 57.73 55.00 55.00 54.17 51.16 52.38 50.46 51.66 51.38 50.82 53.22 54.83 55.47 55.81 54.86 54.98 54.92
59.23 58.85 58.37 56.60 55.60 53.26 58.74 59.92 58.81 56.20 52.37 56.16 56.21 56.42 56.08 55.49 56.87 57.45 58.52 58.46 57.64 57.40 57.81 59.93 61.06 61.33 61.38 60.68 59.03 55.20 54.01 52.08 51.93 48.89 51.32 50.73 48.18 51.57 52.66 54.18 55.34 54.74 52.35 56.40
59.00 58.96 58.78 56.99 55.84 54.28 59.15 59.30 57.72 55.15 52.34 55.38 56.18 56.15 56.58 55.86 56.23 55.55 57.74 58.89 57.57 60.68 63.42 62.55 62.14 60.97 60.84 60.66 59.46 60.07 54.55 53.83 53.43 49.99 51.98 44.93 52.16 56.15 55.51 54.18 54.83 55.77 56.70 57.92
58.45 59.25 58.98 57.31 56.90 54.77 59.20 60.38 57.48 56.15 52.43 55.81 54.50 55.02 55.78 56.72 57.20 55.92 56.93 59.01 61.15 63.31 60.42 58.44 55.86 55.34 56.99 57.98 58.67 58.53 59.11 57.55 54.03 50.59 49.04 50.86 52.99 55.41 55.60 55.23 54.32 57.26 57.91 58.15
58.18 59.24 59.09 57.55 56.98 55.20 57.75 59.29 59.33 56.83 53.69 54.06 55.03 54.10 54.97 54.16 54.88 55.47 57.64 60.78 61.81 61.05 59.38 57.27 52.56 49.68 52.91 52.65 55.98 59.74 57.37 58.80 55.51 53.43 49.10 46.52 53.41 59.61 62.34 61.13 52.36 61.48 61.73 61.66
57.51 58.62 59.25 58.15 57.33 55.92 56.74 57.12 59.41 57.09 54.21 57.78 56.60 54.35 54.11 56.29 55.17 54.85 56.90 57.61 58.26 60.97 57.47 54.24 52.29 50.64 56.10 51.46 51.90 54.65 55.62 56.55 52.24 52.46 51.19 52.94 59.38 61.62 62.52 53.02 55.82 63.07 64.13 64.70
57.08 57.88 59.23 58.61 57.83 57.30 56.57 56.91 60.16 56.47 55.31 57.02 57.98 57.69 55.83 56.08 55.83 53.56 57.43 56.39 58.29 57.57 55.49 54.68 54.59 53.68 56.18 55.38 55.45 55.40 54.27 52.96 52.51 54.41 51.60 49.53 61.12 61.11 57.85 62.42 64.63 65.20 65.21 65.74
56.95 57.50 58.49 58.64 57.87 57.50 56.82 54.34 58.53 59.67 53.36 56.43 59.63 59.88 60.64 60.02 59.52 57.08 57.43 56.43 56.88 58.27 57.19 58.73 59.10 55.31 58.32 55.29 51.60 60.47 53.84 56.27 54.97 55.53 55.78 63.77 63.84 63.42 64.98 65.24 64.54 65.39 65.40 66.11
56.81 57.36 58.01 58.63 57.74 57.14 56.87 55.28 54.87 54.33 52.23 55.74 57.33 57.06 60.69 61.81 60.86 62.15 55.63 58.12 58.46 59.35 61.81 58.74 59.05 55.95 59.80 53.59 54.65 56.82 60.50 61.07 58.19 58.53 58.41 60.62 62.95 64.36 65.24 65.77 65.00 65.16 65.77 66.60
56.55 57.11 57.89 58.43 57.67 56.88 57.17 55.03 55.38 53.99 52.48 51.27 55.59 60.62 58.51 62.05 62.20 60.55 60.58 60.05 61.23 60.48 60.86 57.83 57.12 55.67 59.94 57.95 58.14 57.96 60.00 60.65 58.57 59.69 61.69 62.28 62.78 63.36 64.01 63.97 64.33 64.78 65.77 66.70
56.43 57.19 57.61 58.25 57.55 56.00 57.09 57.05 55.48 55.73 51.47 49.61 52.78 58.64 60.47 60.80 60.75 60.03 60.45 59.01 57.92 57.22 56.33 55.52 54.63 59.57 57.92 59.97 58.27 55.62 60.31 58.87 57.92 56.55 61.85 61.29 61.77 63.39 64.25 63.50 64.11 65.79 65.43 66.26
56.06 57.02 57.42 57.64 56.78 55.36 55.57 52.11 56.21 56.36 54.94 49.77 50.28 59.28 58.29 59.20 59.44 58.99 58.83 59.58 58.39 57.78 56.38 55.66 57.67 59.76 57.73 53.52 52.48 57.91 59.35 61.22 61.75 60.18 62.73 63.38 63.38 63.70 64.80 64.10 65.15 66.11 66.29 66.79
55.88 56.44 56.88 56.52 54.90 55.75 54.09 52.57 55.53 55.11 56.05 50.48 49.15 54.05 58.48 59.37 59.31 58.94 58.45 59.52 58.72 58.28 57.15 56.10 57.13 58.66 57.50 54.83 52.03 57.72 59.40 60.90 61.37 62.17 62.04 60.86 62.46 62.60 64.94 65.29 66.26 65.04 67.49 68.22
55.62 55.83 56.01 55.07 54.23 54.27 52.98 56.55 53.36 54.87 52.28 53.64 50.41 52.69 54.55 59.38 56.83 55.42 59.41 57.19 58.01 57.93 57.03 58.08 56.50 58.93 58.43 53.49 57.69 59.30 60.19 60.68 61.32 61.88 63.01 62.49 63.88 64.58 64.97 66.24 66.79 66.45 66.29 66.85
55.26 55.31 54.81 54.55 53.18 51.14 52.82 55.84 54.90 55.27 51.44 49.45 51.85 50.68 51.77 59.08 58.37 58.44 57.21 58.44 53.98 58.87 55.04 56.16 57.58 55.76 53.73 57.20 59.01 59.52 60.39 60.51 60.97 62.23 62.21 62.92 63.50 63.74 64.26 64.82 65.72 65.15 65.81 66.69
54.85 54.33 51.77 49.29 52.97 56.68 55.66 52.01 49.44 49.11 50.25 49.57 49.92 55.60 52.01 57.35 56.86 55.74 55.80 56.83 54.95 52.26 55.71 59.28 55.48 54.37 59.31 60.80 61.76 63.10 63.38 63.43 63.48 61.45 60.82 61.58 62.94 63.50 63.81 64.26 65.11 65.44 65.85 67.33
53.46 51.19 49.92 54.34 56.69 53.12 51.01 47.66 46.42 46.57 45.54 50.33 52.78 54.26 52.39 57.46 53.02 54.78 57.62 55.90 55.60 50.86 54.51 54.16 53.53 53.54 58.32 62.41 63.07 63.90 64.46 64.70 64.51 65.00 64.85 64.57 63.93 64.27 64.66 64.87 65.68 65.79 67.11 67.82
53.32 53.16 54.69 53.98 51.12 48.82 46.04 45.13 47.14 45.58 45.50 52.92 52.08 53.48 53.98 55.51 57.09 53.80 55.98 53.98 55.60 49.89 57.75 54.10 51.14 57.12 62.78 62.93 62.47 62.86 63.50 63.69 64.13 64.06 64.28 64.56 64.43 64.87 65.49 65.86 66.72 67.42 68.54 69.27
53.72 51.69 49.31 48.46 47.86 41.05 41.97 40.88 43.81 45.55 51.24 52.43 52.95 51.95 53.78 54.29 55.11 53.52 53.78 52.06 51.50 58.43 53.27 51.52 55.75 61.92 63.04 63.44 64.17 62.71 63.16 63.49 64.45 64.52 63.25 64.02 64.47 65.51 65.64 66.42 68.13 68.73 68.53 68.38
48.57 46.53 39.60 42.98 42.59 44.06 45.17 47.01 49.16 53.16 54.41 54.43 55.30 54.70 53.03 54.44 51.59 53.54 50.48 54.87 57.76 50.68 49.00 50.92 57.61 62.94 63.33 62.97 63.94 62.64 61.92 62.59 62.90 63.85 65.21 63.40 64.01 64.64 65.75 67.53 68.76 68.48 68.06 68.10
46.69 47.20 39.93 43.76 49.24 50.12 52.36 52.72 52.81 55.09 55.31 54.33 54.20 54.64 54.73 52.47 51.14 52.76 53.14 51.17 48.98 50.58 50.42 55.45 61.24 62.12 62.26 61.50 62.16 62.91 62.23 62.66 63.02 63.47 64.25 65.37 64.44 64.67 65.44 67.42 68.58 68.95 68.95 68.53
47.43 46.91 44.30 47.09 46.79 48.97 50.60 49.93 49.74 53.07 52.01 53.14 54.28 52.71 50.44 50.88 51.53 50.24 49.33 48.83 47.59 52.26 58.24 60.40 61.29 61.52 61.87 61.58 62.39 62.52 62.59 62.91 63.23 63.72 64.10 65.31 65.97 65.57 65.38 66.50 67.88 68.24 68.17 67.60
45.54 44.55 48.93 49.39 49.57 50.29 50.53 50.04 49.45 51.05 49.81 49.02 50.31 47.35 47.70 53.08 50.60 49.07 51.91 50.17 54.65 59.29 59.80 60.79 62.07 62.01 61.80 62.05 62.76 62.79 63.18 63.10 63.23 64.15 64.86 64.97 66.42 66.95 66.45 65.65 67.28 67.64 68.25 68.04

GFSNW_sfc_wetblb_279.txt.gz
Wetbulb
58.84 58.27 57.98 57.48 55.05 53.38 56.12 61.23 55.60 63.38 63.55 54.55 55.12 52.69 54.37 48.79 54.92 55.82 55.11 54.83 54.47 53.83 54.37 53.80 52.49 52.07 53.28 55.96 55.17 52.72 54.58 52.61 50.03 52.58 56.45 58.00 57.50 56.72 56.78 53.25 52.91 54.09 53.45 52.79
59.31 58.57 57.78 57.19 54.77 53.82 59.84 59.06 59.30 64.03 61.18 52.05 53.35 55.46 54.35 54.58 53.62 53.25 53.70 53.65 55.30 56.33 55.21 53.30 55.06 54.46 56.20 55.45 54.39 53.58 54.49 50.90 47.93 49.54 53.61 55.61 54.14 56.96 58.51 56.71 56.04 54.64 52.01 52.82
59.60 59.00 57.82 57.28 55.51 54.56 57.79 58.87 55.58 59.72 58.30 57.88 55.98 54.18 53.54 52.75 55.34 54.00 55.44 55.28 56.74 55.73 55.28 57.02 55.72 54.00 55.58 56.47 55.04 61.73 59.59 52.08 50.16 47.80 51.26 53.54 52.59 54.43 56.85 56.83 53.85 54.11 54.16 54.58
59.00 59.52 58.20 57.65 56.07 55.09 57.26 59.31 56.59 62.15 54.20 54.70 55.34 55.90 55.28 53.46 53.06 56.55 56.51 55.45 55.46 55.29 54.42 55.45 54.84 56.36 56.75 57.71 58.74 55.98 54.07 50.52 52.18 52.15 52.70 53.49 53.16 53.26 54.29 54.75 56.19 53.96 56.11 54.83
58.70 59.34 58.86 58.40 56.30 54.87 58.77 57.83 57.69 60.33 58.88 60.01 57.18 52.94 55.89 54.94 55.07 55.25 55.26 54.53 56.58 56.33 56.16 57.70 55.28 56.43 56.68 57.14 59.02 55.60 55.38 51.22 53.08 51.27 52.56 52.51 51.19 52.98 53.71 54.85 55.28 56.09 56.47 56.23
58.73 59.13 59.00 58.28 56.59 55.05 60.93 63.30 61.82 58.66 54.64 57.26 56.72 56.56 56.37 56.14 57.53 58.26 58.27 58.83 57.64 57.34 59.10 61.38 61.80 62.08 61.74 61.26 59.59 55.96 54.46 52.59 52.04 49.64 52.76 52.06 49.48 52.25 54.06 55.20 56.81 57.13 54.68 57.73
58.38 58.67 59.11 58.45 57.55 56.11 60.27 62.00 60.17 57.01 53.58 55.77 56.34 57.06 57.98 57.27 57.69 57.18 58.54 59.47 59.11 61.51 64.87 64.09 62.58 61.23 59.92 60.28 60.49 60.52 57.19 54.50 52.96 50.41 52.53 46.33 52.85 56.31 55.31 54.74 55.89 57.32 57.43 57.65
57.96 58.47 59.20 59.01 57.48 56.53 59.53 61.29 59.74 58.36 54.30 56.55 55.92 56.51 57.89 58.97 59.40 58.27 57.94 59.02 61.62 64.01 62.46 58.69 56.13 55.34 55.46 57.10 58.74 59.27 58.99 55.61 52.14 50.08 50.06 52.63 53.09 54.94 54.69 54.10 54.46 57.51 57.65 58.52
57.35 58.16 59.18 59.09 57.52 56.52 58.88 60.58 62.55 58.90 55.97 55.38 57.48 56.25 57.12 55.77 56.35 57.52 58.35 61.09 63.44 62.27 59.91 57.19 52.80 50.64 53.02 53.06 55.34 58.94 57.71 58.75 55.62 51.09 50.20 47.52 54.04 56.97 58.57 58.09 53.06 59.76 61.52 61.28
56.99 57.55 58.70 59.18 57.85 56.62 58.50 59.34 62.02 59.22 55.68 59.10 59.35 55.68 55.50 58.28 57.21 56.43 58.21 58.93 59.55 61.79 57.81 54.55 53.10 51.51 54.98 51.23 52.64 54.57 54.59 55.50 52.93 53.28 47.37 54.28 59.02 61.52 61.20 52.25 57.16 64.76 65.35 65.83
56.71 57.28 58.00 59.29 58.26 57.73 57.87 58.64 61.55 57.29 56.32 58.44 59.78 60.42 58.03 58.13 57.55 55.55 59.03 57.90 58.06 57.87 55.71 54.41 54.88 53.27 55.50 52.88 52.12 52.33 55.11 53.51 52.41 53.98 51.73 50.01 63.41 60.93 57.18 63.86 65.93 66.01 66.24 66.63
56.83 57.32 57.73 58.58 58.25 57.62 56.88 57.03 61.42 60.08 55.09 57.43 61.27 61.73 62.21 61.71 61.16 59.36 59.42 58.36 59.68 60.31 57.93 57.34 57.31 56.10 52.48 49.62 45.10 56.01 50.12 48.28 51.52 55.39 56.27 57.59 61.98 63.90 65.69 65.94 65.22 65.98 65.98 66.55
56.40 56.83 57.56 57.93 58.06 57.37 56.63 58.36 59.57 57.31 54.18 57.62 59.54 59.30 62.71 63.87 62.69 63.33 57.33 58.86 60.30 60.28 63.52 59.54 59.36 55.17 54.70 50.02 49.99 57.30 59.27 58.61 58.20 57.34 58.36 56.13 61.76 63.14 65.00 65.56 65.09 65.77 66.06 66.34
55.96 56.57 57.13 57.88 58.04 57.26 56.74 57.49 60.20 56.16 53.11 52.70 58.09 62.44 60.01 62.98 63.35 62.55 62.00 60.91 62.77 62.05 61.43 58.68 57.68 56.31 61.45 57.28 58.76 58.77 60.91 58.72 57.74 59.16 59.39 61.32 62.70 64.99 65.15 65.12 65.39 65.82 66.67 66.59
55.51 56.44 57.00 57.68 58.00 56.48 56.71 58.68 58.33 59.20 52.06 49.36 55.41 60.18 62.25 63.00 62.51 61.52 61.64 60.48 59.51 58.90 57.19 57.52 56.37 58.96 58.99 59.59 58.87 56.96 59.61 58.87 57.14 55.68 63.12 63.48 64.13 65.06 65.23 64.51 64.90 66.06 66.23 66.54
55.55 56.15 56.82 57.30 57.11 55.81 55.91 52.00 57.15 59.27 56.33 49.76 51.43 62.38 60.37 61.24 60.97 60.66 60.26 60.73 59.78 58.79 56.94 56.92 59.07 61.17 59.04 55.63 53.90 58.98 60.29 60.45 61.25 60.25 63.14 63.77 64.42 64.37 64.90 64.89 65.44 66.11 66.76 67.48
55.33 55.81 56.33 56.53 55.30 56.25 53.56 53.00 55.19 56.78 57.48 50.26 51.07 55.63 60.51 61.13 61.04 60.89 60.15 60.79 59.75 59.28 57.46 56.50 57.24 58.07 58.81 56.33 52.61 57.90 59.92 60.91 61.23 62.25 62.34 60.96 61.98 62.02 64.38 65.57 65.93 64.84 67.50 68.23
55.45 55.67 56.09 55.24 54.42 54.75 53.81 57.11 55.47 58.08 52.90 54.27 50.70 54.24 56.67 61.26 58.10 57.09 60.53 58.23 59.12 59.22 58.04 58.63 56.78 57.81 58.08 54.44 58.65 59.84 60.64 61.13 60.86 60.86 61.97 62.08 62.74 64.03 64.28 66.00 66.52 66.28 66.46 67.39
55.29 55.42 54.88 55.16 53.90 51.58 53.73 56.86 56.13 58.04 53.73 48.09 52.58 52.63 50.82 60.70 58.76 59.63 59.02 59.55 55.12 59.61 56.61 56.62 57.45 55.53 53.43 57.73 59.90 60.49 60.91 60.78 61.05 61.83 63.27 63.12 62.89 63.76 64.98 65.51 65.79 65.85 66.22 67.33
54.78 55.09 52.30 49.19 52.97 56.73 56.24 53.08 49.49 49.65 50.58 50.14 48.25 56.89 53.78 58.90 58.03 57.23 57.09 58.14 55.69 53.56 56.08 58.94 54.74 54.05 59.63 60.66 61.73 63.28 63.49 64.25 64.47 62.25 61.34 62.15 62.12 63.25 64.82 65.12 65.86 66.03 66.23 66.86
53.88 50.81 50.09 55.06 56.93 53.46 51.33 47.62 46.23 46.81 45.59 48.83 50.83 54.07 53.51 59.54 54.72 53.91 57.89 54.84 55.91 50.98 54.57 54.39 53.68 53.60 58.86 62.10 62.33 65.25 66.15 66.66 66.48 66.57 66.56 66.24 65.01 64.52 65.26 65.52 66.02 66.32 67.03 67.24
53.71 54.09 55.28 54.42 51.24 49.00 46.27 45.39 47.14 45.72 45.20 53.26 52.76 55.42 56.79 57.51 59.83 56.05 55.76 54.52 55.32 49.96 57.60 54.13 52.23 56.92 64.66 64.73 64.38 65.26 66.23 66.13 65.70 66.35 66.38 66.64 66.78 66.51 66.08 66.46 66.42 67.50 68.00 69.97
54.77 51.65 49.50 48.47 47.80 41.06 41.79 40.75 43.50 46.01 51.86 53.99 54.45 54.35 56.89 57.58 58.74 55.52 54.53 51.88 51.84 57.39 53.39 52.34 55.51 63.29 65.05 65.38 65.67 65.22 65.63 65.28 65.41 66.10 66.67 65.89 66.34 66.93 66.33 66.36 68.04 68.91 69.83 70.86
48.89 46.74 38.89 43.33 42.36 43.92 45.98 47.52 50.58 53.98 56.01 54.95 55.15 53.05 54.24 55.66 53.89 54.85 50.36 53.70 54.91 49.94 48.30 51.11 57.46 64.70 65.52 66.32 66.23 65.04 64.62 64.67 64.67 65.11 66.30 66.32 65.67 65.92 66.95 67.21 68.95 69.83 69.87 70.22
46.59 46.94 39.81 43.77 50.51 52.45 52.54 53.90 52.61 55.40 55.80 55.04 55.38 54.94 53.71 52.91 52.45 53.18 52.27 49.63 47.80 50.46 51.39 56.06 63.83 66.99 66.68 65.86 65.60 65.29 64.89 65.49 65.46 65.72 65.72 66.73 66.27 65.84 66.40 67.12 68.68 70.09 70.70 69.99
47.75 47.19 44.84 48.87 49.23 50.16 51.37 53.32 53.34 55.26 53.75 53.13 54.47 51.75 50.35 50.58 51.40 50.37 49.48 49.14 48.65 52.49 56.60 63.40 65.49 65.55 65.68 65.51 65.46 65.18 65.60 65.05 65.23 65.68 66.05 66.71 67.31 66.91 66.63 67.78 68.65 69.96 70.40 69.84
45.63 44.34 50.82 51.30 51.58 50.78 53.40 54.70 54.92 55.43 51.92 48.72 49.88 46.76 46.70 52.43 49.42 50.08 52.43 50.33 54.28 59.79 61.43 63.51 65.52 65.26 65.26 65.36 64.70 64.74 65.21 65.21 65.56 65.72 66.29 66.65 67.28 67.98 67.81 66.39 67.93 69.23 69.97 70.47

GFSNW_sfc_wetblb_285.txt.gz
Wetbulb
58.50 58.83 58.85 57.84 55.62 53.99 56.40 57.56 52.61 63.28 63.57 52.94 52.46 49.05 51.10 50.71 51.86 54.16 52.82 51.92 50.52 50.24 50.94 49.63 49.97 50.44 50.20 53.11 51.67 47.51 48.68 44.75 41.72 45.44 50.48 51.73 51.54 48.74 47.32 42.72 42.84 46.08 47.89 48.24
58.67 58.89 58.30 57.60 55.98 55.10 54.84 53.97 56.70 63.89 62.08 50.15 49.79 51.74 51.97 52.93 52.13 52.51 52.44 51.67 51.37 51.47 49.23 47.07 51.80 53.41 56.71 56.00 50.68 46.83 51.10 43.60 39.14 42.67 46.26 48.51 47.49 49.02 47.59 47.61 46.25 43.77 45.76 48.54
58.78 58.78 57.97 57.72 56.70 56.22 55.38 54.63 53.12 58.15 58.89 57.19 53.06 50.49 51.27 52.39 55.79 53.67 53.88 51.95 51.76 50.38 49.46 51.04 50.84 52.80 56.18 57.13 52.75 61.38 54.38 43.04 41.44 40.15 44.19 47.44 46.81 49.87 49.99 46.85 41.93 45.01 47.75 49.58
58.75 58.60 58.23 57.69 57.12 56.26 55.47 55.90 54.55 57.83 53.04 54.59 55.29 54.90 52.51 51.01 51.74 54.49 53.83 52.44 51.09 49.94 47.45 50.42 50.50 53.27 54.27 57.63 60.51 52.93 48.57 42.43 43.29 46.07 48.09 48.21 47.45 47.70 49.33 47.08 46.72 42.75 50.79 51.33
58.52 58.48 58.17 58.07 57.57 55.34 54.93 52.94 55.13 57.43 54.81 55.95 54.86 52.98 52.89 51.15 52.91 54.75 53.73 52.54 53.38 51.88 48.45 50.32 49.81 52.85 53.69 54.00 58.14 50.31 49.71 43.88 45.80 45.05 49.08 48.44 47.26 49.03 48.85 49.30 50.10 48.95 52.24 52.52
58.07 58.23 58.08 58.07 57.81 55.42 56.86 58.63 59.43 57.11 53.03 54.71 52.73 52.47 53.94 54.32 56.75 58.02 57.83 56.78 55.17 54.37 55.27 58.15 57.77 57.80 57.01 55.64 53.87 53.77 51.95 49.35 47.06 40.57 47.22 46.71 43.87 47.53 48.24 48.44 48.57 49.51 46.48 50.40
57.96 58.03 58.16 58.23 58.37 56.76 56.81 57.70 57.50 54.50 50.91 53.49 53.75 55.43 55.82 55.13 56.88 55.43 57.76 58.48 56.13 57.92 60.66 59.76 57.53 57.22 56.86 56.84 55.55 55.78 51.09 48.74 48.14 44.34 46.02 38.51 47.59 50.98 51.55 50.37 50.97 51.10 51.21 52.97
57.44 57.73 58.20 58.48 59.04 57.57 56.56 58.30 56.92 55.08 50.69 53.87 54.74 55.01 55.32 56.38 57.79 56.90 57.05 58.75 58.69 59.14 57.18 51.65 50.22 50.99 51.91 53.92 55.30 55.61 54.49 49.78 45.23 43.11 43.30 47.73 49.86 56.11 56.27 53.42 49.97 57.16 57.19 55.32
57.02 57.58 57.88 58.51 59.07 57.72 56.66 58.53 61.14 56.29 51.36 51.31 55.67 53.39 55.29 53.63 53.28 54.43 56.89 59.37 59.86 57.94 52.56 50.78 46.16 45.07 49.35 49.39 51.60 56.17 53.21 51.19 48.34 46.21 42.99 42.03 51.43 56.98 60.30 59.47 49.53 58.86 60.77 61.32
56.29 57.16 57.59 57.98 58.85 58.10 56.18 57.16 59.71 57.15 52.26 54.58 55.36 52.75 52.80 56.14 55.43 52.77 55.62 56.44 56.64 58.10 50.80 47.80 46.92 47.12 52.99 47.49 47.76 47.55 49.56 49.37 46.22 46.10 45.21 50.26 55.88 59.31 60.90 49.38 51.94 58.70 58.65 60.97
55.80 56.63 57.28 58.00 58.33 58.98 56.47 57.09 59.88 56.65 53.26 53.82 55.82 56.22 54.36 54.78 55.40 52.28 54.97 54.57 55.63 55.46 51.72 49.34 49.51 49.36 50.94 50.17 50.67 49.69 47.56 45.38 47.70 48.34 46.28 45.21 57.30 58.23 53.10 55.26 58.82 58.94 57.64 58.40
55.24 55.94 56.89 57.68 57.88 58.27 57.21 54.53 59.36 60.09 54.47 53.56 57.26 57.32 58.20 57.49 57.71 55.61 55.76 53.92 54.33 56.18 52.12 52.38 54.06 52.32 51.82 49.29 46.51 52.74 48.51 51.43 48.63 49.04 50.03 55.84 58.03 57.02 59.72 59.18 58.83 60.43 59.27 59.97
53.97 55.35 56.26 57.18 57.33 57.71 57.45 56.16 56.82 57.32 53.60 53.23 54.49 54.83 59.71 61.42 60.87 61.41 53.15 54.87 56.90 56.31 56.53 54.20 55.12 51.05 53.17 46.51 48.88 51.07 54.87 53.60 51.26 50.69 55.23 54.95 57.59 59.44 60.51 62.09 60.44 60.54 60.77 60.64
53.64 54.34 55.83 56.78 57.13 57.27 58.00 55.67 58.39 57.52 54.06 48.21 51.97 59.91 56.30 60.17 59.73 60.99 60.10 58.02 58.23 57.33 55.86 52.96 52.15 51.54 54.62 49.58 51.20 51.01 53.90 53.54 50.77 50.53 53.06 54.70 57.69 59.58 60.58 61.78 62.21 62.92 63.32 64.16
53.41 54.33 55.50 56.25 57.01 56.46 57.30 57.83 58.30 57.54 54.09 48.27 49.34 54.01 57.57 60.54 60.16 60.57 60.42 58.78 57.23 55.27 52.59 51.60 50.66 54.55 54.63 54.75 54.26 52.08 53.83 52.15 49.93 49.03 54.46 54.73 56.53 61.46 62.21 59.90 59.94 61.73 63.55 63.98
53.81 54.89 55.46 56.14 56.12 56.48 56.14 51.66 58.07 58.07 58.74 51.28 45.82 55.57 55.62 58.09 59.31 60.06 59.07 58.42 57.27 56.79 53.90 52.86 54.06 56.07 53.26 49.97 50.53 57.08 55.77 56.14 56.59 54.60 57.23 58.19 59.88 62.99 62.44 60.28 61.28 62.03 62.37 64.08
54.69 55.05 55.09 55.44 55.30 56.42 53.23 51.80 53.96 54.35 57.20 50.53 47.02 49.98 58.69 59.22 59.05 59.45 58.28 58.68 57.08 56.45 54.95 53.97 53.69 53.46 53.45 50.69 48.53 55.44 56.82 58.37 58.09 58.34 57.98 57.22 59.52 58.39 62.99 62.62 63.06 62.87 63.71 64.28
54.89 54.91 55.12 55.38 54.77 54.89 53.75 56.39 55.23 55.70 53.83 51.86 47.21 49.17 54.56 60.43 56.12 54.82 58.54 55.71 56.49 55.74 54.37 55.28 53.68 55.01 54.11 49.12 53.41 56.11 58.13 59.88 59.64 59.82 59.55 57.88 58.51 59.22 59.17 60.89 61.35 60.93 60.28 61.98
54.38 55.28 55.32 55.34 54.17 51.95 53.54 57.88 57.31 56.78 53.51 48.38 49.05 47.64 48.39 58.38 55.93 56.84 56.64 57.41 52.50 57.10 53.07 53.23 54.81 52.59 50.96 54.26 54.52 56.30 57.98 58.14 58.68 60.03 60.38 60.03 59.85 59.99 60.93 61.27 61.04 61.00 61.80 62.50
54.78 54.57 52.62 49.65 53.03 57.96 57.41 54.02 50.83 50.56 51.21 50.43 46.67 50.91 47.35 52.89 54.76 54.65 53.90 55.97 53.32 50.15 53.72 56.05 52.47 51.57 56.08 58.25 58.40 59.96 60.82 61.10 61.15 57.63 57.79 59.76 60.04 60.87 61.12 60.66 61.04 60.76 62.94 64.30
53.36 51.18 50.00 54.71 57.21 54.08 51.09 47.46 45.96 46.67 44.66 47.38 47.99 49.25 47.73 54.82 50.33 51.42 56.08 53.13 54.04 49.58 51.93 51.60 51.03 50.84 55.02 58.82 58.77 59.67 61.70 62.23 61.95 62.42 62.68 61.90 62.05 62.22 62.67 62.74 63.60 63.51 63.91 66.60
53.06 53.53 55.02 54.01 51.03 48.82 45.79 44.68 46.54 45.03 44.03 50.03 48.87 50.37 51.71 52.85 55.59 53.30 55.59 52.29 53.10 48.42 56.46 52.84 49.01 53.48 57.59 62.57 60.43 60.79 61.35 63.33 63.50 63.67 63.77 64.27 64.92 64.53 64.22 63.90 64.06 64.51 67.55 63.68
54.96 51.14 49.34 47.91 46.45 38.99 41.15 39.51 42.94 44.51 49.11 51.99 53.31 51.64 54.57 54.47 55.61 54.25 54.25 50.56 49.09 55.48 50.93 49.63 52.90 60.27 62.95 62.68 62.59 61.23 63.92 64.25 64.37 64.27 65.25 65.57 65.73 65.91 65.16 64.67 64.84 65.68 66.98 61.71
48.47 46.12 37.00 43.65 42.43 43.24 44.67 45.01 47.35 51.03 52.06 51.97 54.04 51.92 53.42 53.69 52.55 53.68 50.30 52.35 53.13 49.33 47.08 48.21 53.56 62.66 63.75 63.65 63.61 63.06 63.10 63.74 63.62 63.89 64.56 66.02 65.51 64.65 64.64 65.59 65.05 67.17 67.62 66.58
46.07 46.54 39.42 43.24 47.36 49.41 51.01 50.90 51.37 52.94 54.91 54.33 54.49 52.51 52.92 51.86 48.56 50.32 50.82 49.63 47.10 48.08 46.71 51.14 54.75 63.18 64.71 64.04 63.85 63.40 63.22 63.79 63.39 63.94 63.94 64.53 65.49 65.70 64.16 64.59 64.77 69.12 68.55 66.86
47.55 46.55 44.68 47.24 47.21 47.84 49.77 50.66 50.31 54.33 55.35 55.70 55.48 51.63 49.25 47.85 49.00 46.96 46.96 47.26 46.67 50.34 53.48 55.21 59.62 65.92 65.98 65.56 64.95 64.71 64.93 64.73 63.93 64.30 64.17 64.58 65.00 64.40 65.50 65.73 67.85 68.89 68.42 67.12
45.20 44.18 47.68 48.33 49.08 49.02 51.50 51.93 51.93 56.29 54.87 49.77 50.75 46.42 46.14 50.37 45.88 45.60 50.35 49.44 53.15 55.17 55.58 55.32 55.01 54.66 63.82 66.28 66.10 65.65 64.88 64.40 64.33 64.34 64.01 64.05 65.08 65.18 65.09 64.73 65.15 68.57 68.56 67.81

GFSNW_sfc_wetblb_291.txt.gz
Wetbulb
56.71 57.86 57.35 56.30 55.06 53.17 51.84 48.05 44.43 54.49 54.34 46.79 41.90 41.50 44.43 47.86 48.41 50.76 48.96 46.31 45.79 43.72 44.25 41.60 42.08 44.76 47.62 52.87 47.00 43.15 43.26 38.91 37.94 41.84 43.70 45.38 43.30 43.01 40.59 38.80 37.82 40.17 41.75 44.26
57.69 57.59 56.78 55.38 54.58 53.24 52.07 46.14 46.54 55.50 53.61 42.39 42.20 45.21 48.02 49.56 49.05 47.91 47.55 47.01 48.02 46.15 42.79 41.34 44.13 47.23 52.69 54.85 54.05 42.54 42.73 37.64 36.35 39.09 40.98 42.72 40.68 41.82 42.08 39.74 38.88 40.27 41.33 44.10
57.81 57.18 56.36 55.10 54.74 53.97 50.00 47.84 46.31 50.85 50.81 47.27 45.61 45.88 47.95 48.70 53.90 51.38 50.52 48.83 47.11 43.96 42.69 42.10 44.37 46.74 52.17 55.46 55.37 60.57 49.96 36.30 38.55 38.26 38.99 41.23 40.25 42.85 42.42 41.30 37.72 37.94 41.67 44.29
57.24 57.00 56.44 55.38 55.00 54.45 50.51 47.82 47.13 49.62 46.07 47.61 47.73 46.49 48.99 49.47 49.09 51.80 51.43 48.01 50.89 44.87 40.39 41.02 42.44 47.45 51.53 54.68 57.33 53.37 44.22 38.79 39.42 38.43 42.59 43.08 43.42 44.89 42.86 40.93 40.25 39.17 42.14 47.21
57.08 57.17 56.75 56.24 55.58 53.62 50.65 48.27 48.25 50.28 48.28 48.64 48.83 46.25 46.55 48.97 51.05 50.45 50.86 50.14 52.88 45.69 43.30 43.61 45.20 47.78 47.61 47.94 52.34 50.24 47.36 42.86 39.83 40.00 46.34 45.52 47.72 51.72 50.37 47.76 52.51 44.22 46.47 46.82
57.25 57.11 57.05 56.54 55.64 52.89 49.55 51.41 51.42 50.26 46.85 47.49 47.11 46.88 49.21 51.29 51.93 52.73 54.86 54.23 51.01 50.52 52.24 53.10 52.07 51.65 51.08 50.99 49.12 48.13 46.68 44.18 41.68 39.93 44.35 43.75 40.34 49.55 50.93 50.61 52.50 51.36 46.22 49.22
56.65 56.94 57.02 57.07 56.60 54.27 50.41 50.22 50.02 47.66 45.51 48.30 48.70 49.75 50.85 50.93 51.42 49.87 53.78 53.93 50.67 53.89 56.22 52.39 50.90 48.59 48.65 50.89 49.79 48.16 45.83 43.93 41.34 40.08 40.02 36.04 43.53 52.50 54.62 53.66 53.76 54.04 54.01 55.05
56.19 56.14 57.13 57.50 57.01 56.70 51.20 51.18 50.33 49.99 45.37 48.92 48.49 49.21 49.43 50.87 50.86 50.61 52.28 54.81 55.12 56.27 50.44 46.34 43.90 44.66 46.12 47.66 50.05 48.64 46.87 44.47 41.03 39.65 37.14 41.00 48.43 51.45 50.63 50.51 51.11 56.01 54.86 56.40
55.19 55.53 56.84 57.53 57.13 56.60 51.90 50.71 54.12 53.80 48.70 43.88 50.81 47.88 48.85 46.70 46.78 48.69 52.61 56.10 56.16 53.85 46.67 45.48 39.55 39.63 42.74 44.02 48.02 46.95 47.74 44.93 43.76 39.48 37.97 37.76 46.25 53.87 55.70 54.85 47.62 56.84 56.77 56.18
54.09 54.94 55.95 57.07 57.47 56.80 54.98 51.56 52.37 52.02 47.75 48.42 47.77 46.81 46.87 50.03 48.62 46.74 49.19 52.24 52.15 54.08 44.93 42.15 39.96 40.76 47.63 43.44 42.58 43.90 44.47 43.17 42.97 42.01 40.17 43.98 51.73 54.55 55.68 46.39 49.35 56.60 57.60 57.22
53.29 53.90 54.56 56.11 56.80 57.33 56.26 52.31 55.31 52.37 51.50 51.10 51.92 51.97 48.79 48.57 48.94 46.28 48.80 49.10 49.87 49.38 45.18 44.60 44.91 45.42 46.32 43.65 45.89 43.54 43.21 41.90 43.06 42.83 40.58 39.73 53.88 53.34 49.12 51.83 54.94 57.47 57.94 58.22
52.77 53.35 53.77 55.35 56.41 56.77 57.09 51.87 53.95 56.43 51.71 50.76 52.87 54.30 55.00 53.81 53.35 48.95 47.73 47.47 48.02 50.63 46.90 45.93 46.97 46.96 46.28 43.37 42.58 46.67 43.97 46.23 44.80 45.89 45.04 50.57 53.90 52.31 54.80 55.83 55.31 57.20 57.25 59.56
52.63 53.15 53.48 54.40 55.80 56.65 56.36 54.82 55.15 54.30 51.24 48.08 46.65 48.12 52.57 53.43 54.99 55.86 46.96 47.60 50.90 51.83 52.95 49.03 50.32 47.51 47.89 42.82 43.52 44.77 48.33 50.08 46.50 46.75 46.80 50.26 53.29 55.90 56.49 56.65 56.88 58.65 59.62 60.43
52.73 53.26 53.42 53.95 55.38 56.14 56.34 54.91 55.87 54.33 52.20 47.50 45.98 53.28 50.85 54.07 52.94 53.89 54.41 52.36 51.60 49.45 49.30 47.06 45.75 47.28 51.61 46.55 46.42 45.81 48.22 49.34 46.66 46.46 49.55 50.87 52.40 54.01 56.24 56.94 58.16 59.60 60.00 60.67
53.10 53.52 53.43 54.61 55.32 55.18 55.54 56.02 56.38 56.30 51.46 45.47 47.67 51.61 52.04 52.01 52.56 53.02 53.56 52.53 50.44 47.37 45.69 44.97 44.55 46.88 49.54 48.25 47.90 46.44 50.06 48.16 45.73 44.91 49.51 49.39 50.56 53.61 57.87 55.45 57.17 59.34 58.54 58.53
54.18 53.58 54.04 55.13 54.95 55.18 55.05 49.88 55.19 56.04 55.68 49.47 46.05 48.98 50.08 52.19 51.76 50.46 50.19 51.67 50.65 48.41 46.66 46.04 47.30 48.57 48.20 45.89 45.58 50.11 51.30 52.09 51.19 50.42 51.79 52.83 54.31 55.46 58.83 58.37 58.68 59.48 57.61 57.02
54.26 53.58 54.08 54.12 54.19 54.47 52.60 50.19 53.36 53.85 55.48 50.58 46.43 44.47 49.13 52.47 51.87 50.78 49.36 51.31 49.65 49.40 47.35 45.97 47.14 47.44 48.06 43.65 43.97 47.55 50.30 52.76 54.21 54.84 52.86 52.94 55.10 55.02 56.59 59.51 60.42 58.53 59.89 60.26
54.34 53.87 54.10 54.37 54.62 54.31 53.22 55.29 54.85 54.83 53.24 51.65 46.05 43.21 47.18 50.72 49.05 48.39 49.19 48.60 48.19 48.33 48.35 47.17 47.14 47.24 46.13 43.76 47.63 49.56 51.60 53.16 52.87 53.90 55.27 55.00 56.35 55.08 56.22 57.18 59.05 58.51 58.60 59.22
54.30 54.00 55.06 54.79 53.38 51.61 53.23 57.74 57.30 55.86 52.77 47.37 47.48 42.87 42.41 48.75 46.33 48.79 50.42 47.62 45.12 47.93 46.09 45.83 47.47 44.80 43.44 46.52 48.24 49.69 51.27 49.82 51.43 53.48 54.47 55.18 54.37 55.09 55.42 57.28 56.07 56.46 56.13 57.27
53.83 54.31 51.73 48.85 52.44 57.81 57.08 53.79 50.50 50.54 51.04 50.00 46.43 48.04 42.37 45.80 45.64 46.18 46.82 48.08 48.11 42.93 46.91 47.99 44.91 46.65 50.98 50.47 50.82 51.23 52.72 52.15 52.04 50.29 51.14 51.91 53.07 55.20 56.48 57.33 57.71 56.93 58.86 62.37
52.87 50.46 48.74 54.10 56.93 52.67 50.57 47.15 45.99 46.77 44.64 46.83 46.38 46.54 44.90 47.56 43.11 44.56 49.46 47.35 49.30 45.31 47.03 45.64 43.30 43.37 47.64 52.88 53.17 54.11 53.97 54.56 54.39 55.12 55.59 54.25 53.92 54.92 55.65 57.37 59.25 60.28 63.18 63.83
51.42 51.35 54.09 53.55 50.77 48.26 45.45 44.14 45.26 44.15 41.39 43.76 45.23 46.10 46.59 47.46 46.93 45.60 48.58 47.98 45.96 43.04 48.73 45.90 43.46 45.50 51.17 52.19 55.56 56.57 58.06 55.67 55.67 56.21 56.08 56.68 56.70 57.07 57.29 57.70 58.99 61.85 64.43 64.29
53.89 50.04 49.20 47.44 46.09 38.37 39.38 38.49 41.29 41.59 43.65 46.52 47.95 48.08 48.14 48.66 46.74 44.33 44.92 45.07 44.80 49.12 44.87 44.46 45.85 49.08 51.50 51.87 55.28 56.76 58.15 57.25 55.81 56.47 57.29 58.34 59.04 59.84 60.18 60.16 60.23 60.29 62.53 63.99
47.77 44.74 36.64 42.49 40.97 41.69 42.13 40.76 40.52 43.91 45.02 46.52 48.75 48.66 49.20 50.85 49.07 48.84 42.87 45.78 46.29 44.04 42.09 43.05 47.24 48.45 50.57 52.88 54.12 54.47 54.49 55.61 56.90 57.66 58.41 59.78 60.27 60.27 61.78 61.20 61.06 61.14 60.23 60.82
46.07 45.11 38.03 40.95 44.16 43.35 43.82 44.50 43.87 47.12 47.09 45.07 45.57 48.46 50.21 46.69 46.92 48.37 48.33 45.35 43.16 43.36 44.31 47.06 48.26 49.08 50.14 52.16 53.63 54.19 54.65 54.90 55.21 56.43 56.52 58.87 60.57 60.71 60.59 60.69 60.87 60.91 58.99 60.47
46.90 45.79 42.99 44.04 40.93 41.53 42.50 43.58 43.57 45.30 48.66 48.58 49.16 45.89 43.50 42.94 44.52 44.85 44.32 44.14 43.11 47.96 51.67 52.32 51.32 49.27 50.23 51.67 53.37 54.66 56.36 55.46 55.60 56.43 56.14 56.52 59.27 59.61 59.84 60.78 61.08 60.77 57.44 60.17
44.67 42.95 46.06 42.75 41.55 41.71 42.71 44.40 46.17 49.02 45.94 43.97 44.77 43.29 44.02 46.42 44.05 44.55 46.09 43.83 47.62 50.74 51.30 52.61 53.17 50.57 49.95 52.41 53.91 55.64 56.24 55.94 56.64 57.01 57.25 56.99 57.82 59.29 58.92 59.22 60.07 63.27 62.58 61.49